Showing default

SKYNET 5D, 39034

Orbit data source: Space-Track

SKYNET 5D, 39034 is a payload satellite owned by Paradigm (UK) in GEO that was launched on Wed, 19 Dec 2012 UTC via an ARIANE 5ECA launch vehicle from the French Guiana (FRGUI). Payload-class satellites include a variety of spacecraft equipped with specific instruments for various scientific and technological missions. These include communications satellites like Starlink; space stations such as the ISS; scientific satellites like the Hubble; Earth observation satellites from companies like Planet Labs, Umbra, and HawkEye 360; GPS; miniature CubeSats for education and research; and military/defense satellites.

Not visible in the next 10 days
Identifier
39034, 2012-075A
Orbit
GEO
Country
Flag of UKUK
Related business
Manufacturer
EADS/Bremen
Mission
Operational Defense Communications
Bus & Motor
EUROSTAR 3000LX, R-4D-15-375
Mass
4,844 kg wet, ~2,200 kg dry
Launch date (UTC)
2012-12-19 (13 years ago)
Launch vehicle
ARIANE 5ECA
Launch site
French Guiana (FRGUI)
Object type
Payload
Rocket body
Debris
Shape & HBR
Box + 2 Pan, 17.0 m
Radar Cross Section
41.425 m², Large (>1 m²)

Expand to show TLE details & history
Last TLE update: 9 hours ago

TLE from 9 hours ago
0 SKYNET 5D
1 39034U 12075A   25355.24975481  .00000122  00000-0  00000-0 0  9999
2 39034   0.0730   5.0926 0003859 263.6710 323.9673  1.00271858 47379
Epoch: 2025-12-21T05:59Z
TLE epoch observation values (Epoch: 2025-12-21T05:59:38.815Z)
Latitude
-0.07532°
Longitude
52.71929°
Altitude
35,772.852 km
Speed
3.076 km/s
True Right ascension
15h 30m 47s
True Declination
0° 04' 31"
Sunlit
Object was in daylight at epoch
Visualization orbit readout
Latitude
Unknown
Longitude
Unknown
Altitude
Unknown
Speed
Unknown
Apparent Right ascension
Unknown
Apparent Declination
Unknown
Sunlit
N/A
Visualization observer readout
Local Sidereal Time
13:57:01
Azimuth
Unknown
Elevation
Unknown
Doppler factor
Unknown
Orbital elements
Apogee altitude
35,803.917 km
Perigee altitude
35,771.373 km
Semi-major axis
42,165.782 km
Eccentricity
0.00039
Inclination
0.073°
RAAN
5.0926°
Arg. of periapsis
263.671°
True anomaly
323.94128°
Mean anomaly
323.9673°
Eccentric anomaly
323.95429°
Mean motion
0.25067 °/min
Orbital period
1,436.15 mins
BSTAR
0
Loading maneuver chart data...
Computing Atmospheric mass density...
Loading historical data...
Loading historical data...
Loading historical data...
Loading historical data...
Loading historical data...
Loading historical data...
Loading historical data...
Other satellites on launch #75 in the year 2012 (2012-12-19 UTC)

Documentation

Showing up to 5 results
|